CZ-6A DEB

Satellite information

Favourite Embed

Satellite Type and Status

DEBRISIN ORBIT

Key statistics

Satellite CZ-6A DEB at a glance.

Uptime

909

Days in orbit

Revolutions

≈ 14.1

Per day

Orbit

SSO

Sun Synchronous Orbit

Inclination

98.8

Latest

Satellite identification and parameters

Extended collection of information and parameters for CZ-6A DEB.

Object identification

Identified? True

Debris? True

Object name: CZ-6A DEB

International designator: 2022-151SY

Object number (NORAD): 54959

Object ID (CCSDS): 54959

Country: PEOPLES REPUBLIC OF CHINA (PRC)

Current information (Y/N): Y

RCS size: SMALL

Orbital parameters

Period: 102.443 minutes

Inclination: 98.8356 deg

SMA: 7252.39 km

Apoapsis: 929.678 km

Periapsis: 818.832 km

RAAN: 121.0972 deg

Eccentricy: 0.007642

Argument of periapsis: 72.5672 deg

Mean anomaly: 288.3832 deg

Mean motion: 14.05662447 rev/day

Mean motion (dot): 0.00000998 rev/day2

B* drag term: 0.00062195 1/REarth

Two-line elements (TLE)

Creation date: May 8, 2025, 3:01 a.m.

Reference frame: TEME

Reference center: EARTH

Epoch: May 7, 2025, 8:40 p.m. UTC

TLE line 0: 0 CZ-6A DEB

TLE line 1: 1 54959U 22151SY 25127.86180414 .00000998 00000-0 62195-3 0 9994

TLE line 2: 2 54959 98.8356 121.0972 0076420 72.5672 288.3832 14.05662447127152

Live tracking on map

Real-time ground track for satellite CZ-6A DEB.

In-orbit conjunctions

A list of the most updated potential collisions computed for object CZ-6A DEB.

Target Orbit TCA Probability of collision Miss distance Type
CZ-6A DEB LEO 2025-05-06 11:54:55 0.0001020223 361.0 (m) DEBRIS
COSMOS 2251 DEB LEO 2025-01-21 21:42:47 0.0001000295 527.0 (m) DEBRIS

Associated space launch

Chinese satellite reported for atmospheric/ocean/environmental/spatial parameter research purposes, details TBD.

CZ-6A DEB was lifted into orbit during the mission ‘Long March 6A | Yunhai 3’, on board a Long March 6A space rocket.

The launch took place on Nov. 11, 2022, 10:52 p.m. from Launch Complex 9A.

For more information about the launch, click the button.

Launch to space Long March 6A | Yunhai 3
Long March 6A | Yunhai 3

Agency: N/A

Status: Launch Successful

Launch date: Nov. 11, 2022, 10:52 p.m. UTC

Rocket: Long March 6A

Launch pad: Launch Complex 9A

Location: Taiyuan Satellite Launch Center, People's Republic of China

...

Latest news about this satellite

There are no fresh news available about this satellite. Check back as we update our databases every day.


Newsletter sign-up

Weekly statistics, charts and insights to help you stay on top of the space industry.